Find Apstar 7

NORAD ID: 38107 Int'l Des: 2012-013 Owner: APT Country: HK operational
HEOCIRCULARGSOGEO

Current View

Loading 3D Globe...

About Apstar 7

Description loading...

Upcoming Passes

Passes for default location (London). Set your location on the main map for personalized predictions.

Altitude History

Loading altitude history...

Two-Line Element Set

1 38107U 12013A 26149.52016137 .00000000 00000-0 00000+0 0 9992
2 38107 0.0198 311.0105 0002961 125.8734 73.9234 1.00270209 51621
Epoch: May 29, 2026 • Age: 15 hours

Current Status

Altitude 35780.1 km
Velocity 3.08 km/s
Sub-Earth Point 0.04°N, 76.46°E
Launch Date Mar 31, 2012
Age 14.1 years
Type other

Technical Details

Classification Payload
Mass 5054.00 kg
Dry Mass 2500.00 kg
Total Mass 5054.00 kg
Length 5.00 m
Diameter 2.50 m
Span 30.00 m
Shape Box + 2 Pan
Manufacturer THALES
Bus Type Spacebus 4000C2
Phase Status In Orbit
Owner/State APT/HK

Most Searched